Date String (YYYY-MM-DD hh:mm:ss) UTC,Instrument flags,Ambient pressure (hPa),Sample flow (lpm),Bypass flow (lpm),Sample temperature (°C),Ambient temperature (°C),ASC tube jacket temperature (°C),LED temperature (°C),Box temperature (°C),Sample RH (%),Span deviation,Mass concentration (μg/m³),Mass concentration (μg/m³),Mass concentration (μg/m³)
DateTimeUTC,F1_M11,P_M11,Q1_M11,Q2_M11,T1_M11,T2_M11,T3_M11,T4_M11,T5_M11,U1_M11,ZSPAN_M11,X0_M11,X2_M11,X1_M11
2022-01-29 08:00:00,,0830.5,5.00,0.00,22.5,21.8,00.0,31.5,24.3,04.1,0000.0,0002.43,0000.65,0000.46
2022-01-29 08:01:00,,0830.6,5.00,0.00,22.5,21.8,00.0,31.5,24.3,04.2,0000.0,0002.36,0000.62,0000.45
2022-01-29 08:02:00,,0830.5,5.00,0.00,22.6,21.8,00.0,31.5,24.3,04.3,0000.0,0002.38,0000.63,0000.46
2022-01-29 08:03:00,,0830.5,4.98,0.00,22.6,21.8,00.0,31.5,24.3,04.4,0000.0,0002.36,0000.63,0000.47
2022-01-29 08:04:00,,0830.5,5.01,0.00,22.5,21.8,00.0,31.5,24.3,04.4,0000.0,0002.37,0000.64,0000.48
2022-01-29 08:05:00,,0830.5,5.01,0.00,22.5,21.8,00.0,31.5,24.3,04.4,0000.0,0001.13,0000.63,0000.49
2022-01-29 08:06:00,,0830.5,4.99,0.00,22.5,21.8,00.0,31.5,24.3,04.4,0000.0,0000.99,0000.62,0000.49
2022-01-29 08:07:00,,0830.5,5.01,0.00,22.5,21.8,00.0,31.5,24.3,04.5,0000.0,0001.00,0000.64,0000.50
2022-01-29 08:08:00,,0830.4,5.00,0.00,22.5,21.8,00.0,31.5,24.3,04.4,0000.0,0000.99,0000.65,0000.51
2022-01-29 08:09:00,,0830.5,5.00,0.00,22.5,21.8,00.0,31.5,24.3,04.2,0000.0,0000.95,0000.64,0000.51
2022-01-29 08:10:00,,0830.5,5.00,0.00,22.5,21.8,00.0,31.5,24.3,04.1,0000.0,0000.81,0000.60,0000.52
2022-01-29 08:11:00,,0830.5,5.01,0.00,22.5,21.8,00.0,31.5,24.3,04.2,0000.0,0000.73,0000.58,0000.51
2022-01-29 08:12:00,,0830.4,4.98,0.00,22.5,21.8,00.0,31.5,24.3,04.2,0000.0,0001.05,0000.57,0000.51
2022-01-29 08:13:00,,0830.4,5.00,0.00,22.5,21.8,00.0,31.5,24.2,04.1,0000.0,0001.32,0000.58,0000.50
2022-01-29 08:14:00,,0830.4,5.01,0.00,22.5,21.7,00.0,31.4,24.2,04.2,0000.0,0001.34,0000.58,0000.49
2022-01-29 08:15:00,,0830.4,5.00,0.00,22.5,21.7,00.0,31.4,24.2,04.2,0000.0,0001.31,0000.56,0000.48
2022-01-29 08:16:00,,0830.5,5.00,0.00,22.5,21.7,00.0,31.4,24.3,04.1,0000.0,0001.38,0000.59,0000.48
2022-01-29 08:17:00,,0830.7,5.00,0.00,22.5,21.7,00.0,31.4,24.3,04.0,0000.0,0001.41,0000.59,0000.46
2022-01-29 08:18:00,,0830.6,5.00,0.00,22.5,21.7,00.0,31.4,24.3,04.0,0000.0,0001.43,0000.57,0000.45
2022-01-29 08:19:00,,0830.7,4.98,0.00,22.5,21.7,00.0,31.4,24.2,04.0,0000.0,0001.41,0000.55,0000.44
2022-01-29 08:20:00,,0830.7,5.00,0.00,22.5,21.7,00.0,31.4,24.2,04.0,0000.0,0001.39,0000.54,0000.43
2022-01-29 08:21:00,,0830.5,5.01,0.00,22.4,21.7,00.0,31.4,24.2,03.9,0000.0,0001.38,0000.53,0000.42
2022-01-29 08:22:00,,0830.3,5.00,0.00,22.4,21.7,00.0,31.4,24.2,03.9,0000.0,0001.38,0000.53,0000.43
2022-01-29 08:23:00,,0830.3,5.00,0.00,22.4,21.7,00.0,31.4,24.2,04.0,0000.0,0000.97,0000.53,0000.43
2022-01-29 08:24:00,,0830.4,4.98,0.00,22.4,21.7,00.0,31.4,24.1,04.1,0000.0,0000.81,0000.53,0000.43
2022-01-29 08:25:00,,0830.4,5.00,0.00,22.4,21.6,00.0,31.4,24.1,04.1,0000.0,0000.84,0000.54,0000.43
2022-01-29 08:26:00,,0830.3,5.00,0.00,22.3,21.6,00.0,31.4,24.1,04.2,0000.0,0000.87,0000.56,0000.43
2022-01-29 08:27:00,,0830.2,5.01,0.00,22.3,21.6,00.0,31.4,24.0,04.2,0000.0,0000.80,0000.53,0000.42
2022-01-29 08:28:00,,0830.3,5.00,0.00,22.3,21.5,00.0,31.3,24.0,04.1,0000.0,0000.76,0000.51,0000.42
2022-01-29 08:29:00,,0830.4,4.99,0.00,22.3,21.7,00.0,31.4,24.1,04.1,0000.0,0000.68,0000.49,0000.42
2022-01-29 08:30:00,,0830.4,5.00,0.00,22.4,22.3,00.0,31.4,24.3,04.1,0000.0,0000.66,0000.49,0000.42
2022-01-29 08:31:00,,0830.4,5.00,0.00,22.5,22.9,00.0,31.4,24.5,04.0,0000.0,0000.70,0000.50,0000.42
2022-01-29 08:32:00,,0830.4,4.99,0.00,22.6,23.0,00.0,31.4,24.6,04.0,0000.0,0000.71,0000.50,0000.42
2022-01-29 08:33:00,,0830.4,5.00,0.00,22.6,22.8,00.0,31.5,24.5,03.9,0000.0,0000.75,0000.52,0000.42
2022-01-29 08:34:00,,0830.3,5.01,0.00,22.6,22.6,00.0,31.5,24.5,03.9,0000.0,0000.76,0000.52,0000.42
2022-01-29 08:35:00,,0830.2,5.00,0.00,22.6,22.4,00.0,31.5,24.5,03.9,0000.0,0000.71,0000.51,0000.41
2022-01-29 08:36:00,,0830.2,4.99,0.00,22.6,22.3,00.0,31.5,24.4,04.0,0000.0,0000.72,0000.50,0000.41
2022-01-29 08:37:00,,0830.2,5.00,0.00,22.6,22.2,00.0,31.5,24.3,04.1,0000.0,0000.74,0000.50,0000.40
2022-01-29 08:38:00,,0830.2,5.00,0.00,22.5,22.1,00.0,31.5,24.3,03.8,0000.0,0000.82,0000.54,0000.41
2022-01-29 08:39:00,,0830.3,4.99,0.00,22.5,22.0,00.0,31.5,24.2,03.9,0000.0,0000.84,0000.55,0000.42
2022-01-29 08:40:00,,0830.3,5.01,0.00,22.5,21.9,00.0,31.5,24.2,03.8,0000.0,0000.88,0000.57,0000.43
2022-01-29 08:41:00,,0830.2,5.01,0.00,22.5,21.8,00.0,31.5,24.2,03.8,0000.0,0000.89,0000.57,0000.43
2022-01-29 08:42:00,,0830.2,5.01,0.00,22.4,21.8,00.0,31.5,24.1,03.8,0000.0,0000.89,0000.57,0000.43
2022-01-29 08:43:00,,0830.1,5.00,0.00,22.4,21.7,00.0,31.4,24.1,03.8,0000.0,0000.89,0000.57,0000.43
2022-01-29 08:44:00,,0830.1,4.98,0.00,22.3,21.6,00.0,31.4,24.0,03.7,0000.0,0000.88,0000.56,0000.42
2022-01-29 08:45:00,,0830.1,5.00,0.00,22.3,21.6,00.0,31.4,24.0,03.7,0000.0,0000.88,0000.56,0000.41
2022-01-29 08:46:00,,0830.1,5.01,0.00,22.3,21.5,00.0,31.4,23.9,03.7,0000.0,0000.92,0000.57,0000.41
2022-01-29 08:47:00,,0830.1,5.00,0.00,22.3,21.5,00.0,31.4,23.9,03.5,0000.0,0000.90,0000.56,0000.41
2022-01-29 08:48:00,,0830.0,5.00,0.00,22.2,21.4,00.0,31.4,23.9,03.3,0000.0,0000.88,0000.55,0000.39
2022-01-29 08:49:00,,0830.0,5.00,0.00,22.2,21.4,00.0,31.3,23.8,03.2,0000.0,0000.79,0000.51,0000.37
2022-01-29 08:50:00,,0830.0,4.99,0.00,22.1,21.3,00.0,31.3,23.7,03.2,0000.0,0000.81,0000.48,0000.35
2022-01-29 08:51:00,,0830.0,5.00,0.00,22.1,21.3,00.0,31.3,23.7,03.3,0000.0,0001.14,0000.47,0000.34
2022-01-29 08:52:00,,0829.9,5.00,0.00,22.1,21.2,00.0,31.3,23.6,03.6,0000.0,0001.10,0000.45,0000.33
2022-01-29 08:53:00,,0829.8,5.00,0.00,22.0,21.2,00.0,31.2,23.6,03.5,0000.0,0001.07,0000.43,0000.32
2022-01-29 08:54:00,,0829.8,5.01,0.00,22.0,21.4,00.0,31.2,23.6,03.7,0000.0,0001.06,0000.43,0000.32
2022-01-29 08:55:00,,0829.8,4.99,0.00,22.1,22.0,00.0,31.3,23.9,03.9,0000.0,0001.04,0000.43,0000.34
2022-01-29 08:56:00,,0829.8,5.01,0.00,22.3,22.7,00.0,31.3,24.2,04.0,0000.0,0001.04,0000.44,0000.35
2022-01-29 08:57:00,,0829.8,5.00,0.00,22.3,22.7,00.0,31.3,24.2,04.0,0000.0,0001.02,0000.44,0000.36
2022-01-29 08:58:00,,0829.8,4.99,0.00,22.3,22.4,00.0,31.3,24.2,04.0,0000.0,0000.97,0000.45,0000.39
2022-01-29 08:59:00,,0829.7,5.00,0.00,22.3,22.2,00.0,31.3,24.1,03.8,0000.0,0000.96,0000.45,0000.41
